Location: Mahannah Oil Field
(37.4664°N, 96.6003°W)
Time: 01:40:22
(UTC+00:00)

Tiros 1 despin weight - Pass Details

Date: 26 January 2021
Orbit: 593 x 642 km, 48.2° (Epoch: 25 February)

Event Time Altitude Azimuth Distance (km) Brightness Sun altitude
Rises 03:02:51 0° 295° (WNW) 2,838 ? -39.5°
Enters shadow 03:05:08 - 286° (WNW) 1,997 ? -40.0°
Reaches altitude 10° 03:05:21 10° 285° (WNW) 1,928 - -40.0°
Maximum altitude 03:09:11 30° 224° (SW) 1,077 - -40.8°
Drops below altitude 10° 03:13:00 10° 164° (SSE) 1,911 - -41.5°
Sets 03:15:29 0° 153° (SSE) 2,810 - -42.0°
